TimeEST,TemperatureF,Dew PointF,Humidity,Sea Level PressureIn,VisibilityMPH,Wind Direction,Wind SpeedMPH,Gust SpeedMPH,PrecipitationIn,Events,Conditions,WindDirDegrees,DateUTC
12:15 AM,32.0,19.4,60,30.12,-9999.0,West,23.0,27.6,N/A,,Overcast,270,2013-01-06 05:15:00
12:35 AM,30.2,21.2,69,30.11,-9999.0,West,20.7,31.1,N/A,,Overcast,270,2013-01-06 05:35:00
12:55 AM,30.2,19.4,64,30.09,-9999.0,West,19.6,23.0,N/A,,Overcast,270,2013-01-06 05:55:00
1:15 AM,30.2,21.2,69,30.10,-9999.0,West,20.7,26.5,N/A,,Overcast,270,2013-01-06 06:15:00
1:35 AM,30.2,23.0,75,30.09,-9999.0,West,18.4,27.6,N/A,,Overcast,270,2013-01-06 06:35:00
1:55 AM,30.2,23.0,75,30.08,-9999.0,West,21.9,28.8,N/A,,Overcast,260,2013-01-06 06:55:00
2:15 AM,30.2,23.0,75,30.06,-9999.0,West,19.6,27.6,N/A,,Scattered Clouds,260,2013-01-06 07:15:00
2:35 AM,30.2,24.8,80,30.06,-9999.0,West,19.6,32.2,N/A,,Scattered Clouds,270,2013-01-06 07:35:00
2:55 AM,28.4,24.8,86,30.06,-9999.0,West,19.6,33.4,N/A,,Mostly Cloudy,270,2013-01-06 07:55:00
3:15 AM,28.4,24.8,86,30.06,-9999.0,West,20.7,27.6,N/A,,Scattered Clouds,270,2013-01-06 08:15:00
3:35 AM,28.4,24.8,86,30.06,-9999.0,West,15.0,23.0,N/A,,Mostly Cloudy,270,2013-01-06 08:35:00
3:55 AM,28.4,24.8,86,30.06,-9999.0,West,16.1,24.2,N/A,,Overcast,280,2013-01-06 08:55:00
4:15 AM,28.4,21.2,74,30.05,-9999.0,West,16.1,26.5,N/A,,Scattered Clouds,280,2013-01-06 09:15:00
4:35 AM,28.4,21.2,74,30.05,-9999.0,West,16.1,26.5,N/A,,Mostly Cloudy,280,2013-01-06 09:35:00
4:55 AM,28.4,21.2,74,30.04,-9999.0,West,15.0,25.3,N/A,,Mostly Cloudy,280,2013-01-06 09:55:00
5:15 AM,28.4,21.2,74,30.04,-9999.0,West,19.6,26.5,N/A,,Scattered Clouds,270,2013-01-06 10:15:00
5:35 AM,28.4,21.2,74,30.04,-9999.0,West,17.3,27.6,N/A,,Mostly Cloudy,270,2013-01-06 10:35:00
5:55 AM,28.4,21.2,74,30.04,-9999.0,West,18.4,26.5,N/A,,Overcast,280,2013-01-06 10:55:00
6:15 AM,28.4,21.2,74,30.04,-9999.0,West,16.1,23.0,N/A,,Overcast,280,2013-01-06 11:15:00
6:35 AM,28.4,21.2,74,30.05,-9999.0,West,15.0,-,N/A,,Overcast,270,2013-01-06 11:35:00
6:55 AM,28.4,21.2,74,30.05,-9999.0,West,15.0,20.7,N/A,,Mostly Cloudy,280,2013-01-06 11:55:00
7:15 AM,28.4,21.2,74,30.05,-9999.0,West,16.1,-,N/A,,Mostly Cloudy,270,2013-01-06 12:15:00
7:35 AM,28.4,21.2,74,30.05,-9999.0,West,16.1,-,N/A,,Mostly Cloudy,280,2013-01-06 12:35:00
7:55 AM,28.4,21.2,74,30.05,-9999.0,West,15.0,-,N/A,,Overcast,280,2013-01-06 12:55:00
8:15 AM,28.4,21.2,74,30.05,-9999.0,West,15.0,23.0,N/A,,Overcast,280,2013-01-06 13:15:00
8:35 AM,28.4,23.0,80,30.05,-9999.0,West,17.3,-,N/A,,Overcast,280,2013-01-06 13:35:00
8:55 AM,28.4,23.0,80,30.06,-9999.0,West,15.0,-,N/A,,Overcast,270,2013-01-06 13:55:00
9:35 AM,28.4,23.0,80,30.06,-9999.0,West,16.1,23.0,N/A,,Overcast,280,2013-01-06 14:35:00
9:55 AM,28.4,24.8,86,30.07,-9999.0,West,15.0,21.9,N/A,,Overcast,280,2013-01-06 14:55:00
10:15 AM,28.4,24.8,86,30.07,-9999.0,West,13.8,19.6,N/A,,Overcast,280,2013-01-06 15:15:00
10:35 AM,30.2,24.8,80,30.06,-9999.0,West,12.7,23.0,N/A,,Overcast,280,2013-01-06 15:35:00
10:55 AM,30.2,24.8,80,30.06,-9999.0,West,13.8,-,N/A,,Overcast,280,2013-01-06 15:55:00
11:15 AM,30.2,24.8,80,30.05,-9999.0,West,13.8,18.4,N/A,,Overcast,270,2013-01-06 16:15:00
11:35 AM,30.2,24.8,80,30.04,-9999.0,West,16.1,20.7,N/A,,Overcast,270,2013-01-06 16:35:00
11:55 AM,30.2,24.8,80,30.03,-9999.0,West,13.8,26.5,N/A,,Overcast,280,2013-01-06 16:55:00
12:15 PM,30.2,24.8,80,30.03,-9999.0,West,10.4,20.7,N/A,,Overcast,280,2013-01-06 17:15:00
12:35 PM,30.2,24.8,80,30.02,-9999.0,West,16.1,20.7,N/A,,Overcast,270,2013-01-06 17:35:00
12:55 PM,30.2,24.8,80,30.01,-9999.0,West,16.1,23.0,N/A,,Overcast,260,2013-01-06 17:55:00
1:15 PM,30.2,24.8,80,30.00,-9999.0,West,16.1,21.9,N/A,,Overcast,260,2013-01-06 18:15:00
1:35 PM,30.2,24.8,80,30.00,-9999.0,West,16.1,23.0,N/A,,Overcast,260,2013-01-06 18:35:00
1:55 PM,30.2,24.8,80,30.00,-9999.0,West,16.1,21.9,N/A,,Overcast,270,2013-01-06 18:55:00
2:15 PM,30.2,24.8,80,30.00,-9999.0,West,13.8,19.6,N/A,,Overcast,260,2013-01-06 19:15:00
2:35 PM,30.2,24.8,80,29.99,-9999.0,West,15.0,18.4,N/A,,Overcast,260,2013-01-06 19:35:00
2:55 PM,30.2,24.8,80,29.99,-9999.0,West,11.5,16.1,N/A,,Overcast,270,2013-01-06 19:55:00
3:15 PM,30.2,24.8,80,30.00,-9999.0,West,13.8,-,N/A,,Overcast,270,2013-01-06 20:15:00
3:35 PM,30.2,24.8,80,30.00,-9999.0,West,11.5,18.4,N/A,,Overcast,260,2013-01-06 20:35:00
3:55 PM,30.2,24.8,80,30.00,-9999.0,West,12.7,-,N/A,,Overcast,260,2013-01-06 20:55:00
4:15 PM,30.2,24.8,80,30.00,-9999.0,West,11.5,17.3,N/A,,Overcast,270,2013-01-06 21:15:00
4:35 PM,30.2,24.8,80,30.00,-9999.0,West,12.7,-,N/A,,Overcast,270,2013-01-06 21:35:00
4:55 PM,30.2,24.8,80,30.01,-9999.0,West,12.7,17.3,N/A,,Overcast,270,2013-01-06 21:55:00
5:15 PM,30.2,24.8,80,30.01,-9999.0,West,12.7,20.7,N/A,,Overcast,270,2013-01-06 22:15:00
5:35 PM,30.2,24.8,80,30.01,-9999.0,West,15.0,19.6,N/A,,Overcast,270,2013-01-06 22:35:00
5:55 PM,30.2,24.8,80,30.02,-9999.0,West,15.0,23.0,N/A,,Overcast,270,2013-01-06 22:55:00
6:15 PM,30.2,24.8,80,30.02,-9999.0,West,19.6,25.3,N/A,,Overcast,270,2013-01-06 23:15:00
6:35 PM,30.2,24.8,80,30.03,-9999.0,West,18.4,25.3,N/A,,Overcast,280,2013-01-06 23:35:00
6:55 PM,30.2,24.8,80,30.04,-9999.0,West,17.3,23.0,N/A,,Overcast,280,2013-01-06 23:55:00
7:15 PM,30.2,24.8,80,30.04,-9999.0,West,17.3,23.0,N/A,,Overcast,280,2013-01-07 00:15:00
7:35 PM,30.2,24.8,80,30.04,-9999.0,West,16.1,-,N/A,,Overcast,280,2013-01-07 00:35:00
7:55 PM,30.2,24.8,80,30.04,-9999.0,West,17.3,21.9,N/A,,Overcast,270,2013-01-07 00:55:00
8:15 PM,30.2,24.8,80,30.03,-9999.0,West,17.3,24.2,N/A,,Overcast,280,2013-01-07 01:15:00
8:35 PM,30.2,24.8,80,30.03,-9999.0,West,17.3,24.2,N/A,,Overcast,280,2013-01-07 01:35:00
8:55 PM,30.2,24.8,80,30.04,-9999.0,West,17.3,23.0,N/A,,Overcast,280,2013-01-07 01:55:00
9:15 PM,30.2,24.8,80,30.04,-9999.0,West,13.8,25.3,N/A,,Overcast,280,2013-01-07 02:15:00
9:35 PM,30.2,24.8,80,30.05,-9999.0,West,15.0,23.0,N/A,,Overcast,280,2013-01-07 02:35:00
10:15 PM,30.2,24.8,80,30.05,-9999.0,West,18.4,29.9,N/A,,Overcast,280,2013-01-07 03:15:00
10:35 PM,30.2,24.8,80,30.06,-9999.0,West,17.3,26.5,N/A,,Overcast,280,2013-01-07 03:35:00
10:55 PM,30.2,24.8,80,30.06,-9999.0,West,18.4,26.5,N/A,,Overcast,280,2013-01-07 03:55:00
11:15 PM,30.2,26.6,86,30.07,-9999.0,West,17.3,25.3,N/A,,Unknown,270,2013-01-07 04:15:00
11:35 PM,30.2,26.6,86,30.09,-9999.0,WNW,15.0,24.2,N/A,,Overcast,300,2013-01-07 04:35:00
11:55 PM,28.4,24.8,86,30.08,-9999.0,WNW,15.0,27.6,N/A,,Overcast,300,2013-01-07 04:55:00